Location: ??
(35.0049°N, 135.7434°E)
Time: 14:55:31
(UTC+00:00)

Daily predictions for brighter satellites

Satellite Brightness Start Highest point End
(mag) Time Altitude Azimuth Time Altitude Azimuth Time Altitude Azimuth
CZ-2C R/B 4.5 12:09:36 10° NNW 12:13:52 27° WNW 12:18:10 10° SW
USA 234 4.3 12:08:30 10° NNE 12:14:32 41° NW 12:20:33 10° WSW
ATLAS 2AS CENTAUR R/B 2.9 12:13:22 10° NW 12:20:10 69° W 12:20:10 69° W
ATLAS 5 CENTAUR R/B 4.4 12:59:40 10° WSW 13:39:45 22° ESE 14:04:08 10° ESE
Cosmos 2227 Rocket 4.2 17:02:14 22° ENE 17:02:14 22° ENE 17:04:54 10° NE
NOSS 3-2 (A) 4.4 17:26:28 40° ENE 17:26:28 40° ENE 17:30:36 10° NE
CENTAUR R/B 3.6 17:36:16 33° ESE 17:36:16 33° ESE 17:41:38 10° NE
ADEOS II 3.7 17:34:33 10° N 17:36:59 28° N 17:36:59 28° N
BREEZE-M DEB 4.2 17:47:13 68° ENE 17:47:13 68° ENE 17:58:32 10° NE
NOSS 3-2 (C) 3.6 17:55:08 58° E 17:55:08 58° E 18:00:46 10° NE
IDEFIX/ARIANE 42P 3.3 17:52:49 10° NNE 17:57:50 47° E 17:57:52 47° ESE
Cosmos 1634 Rocket 3.9 17:56:05 10° N 18:02:01 82° NNE 18:02:01 82° NNE
Cosmos 2237 Rocket 2.4 17:57:04 10° NNW 18:02:44 68° ENE 18:03:21 63° ESE
Meteor 1-18 Rocket 4.2 18:12:12 86° NNW 18:12:12 86° NNW 18:17:53 10° N
Cosmos 2297 Rocket 2.7 18:18:37 45° NW 18:18:37 45° NW 18:23:15 10° N
Cosmos 2142 Rocket 4.4 18:13:23 10° N 18:19:46 88° E 18:22:07 42° S
ARIANE 5 R/B 3.7 18:16:22 10° N 18:19:36 32° NNW 18:19:36 32° NNW
Cosmos 2219 4.3 18:24:24 31° NW 18:24:24 31° NW 18:28:36 10° N
STARLINK-1062 4.4 18:26:46 48° E 18:26:46 48° E 18:30:11 10° NE
USA 267 4.1 18:23:32 10° NNE 18:29:22 36° NW 18:30:56 32° WNW
ATLAS 3B R/B 3.2 18:27:33 28° S 18:30:54 51° ESE 18:37:17 10° NE
STARLINK-1053 4.1 18:31:35 57° E 18:31:35 57° E 18:35:13 10° NE
Cosmos 1975 3.6 18:27:48 10° N 18:30:43 46° N 18:30:43 46° N
VEP-3 4.3 18:31:19 34° SW 18:35:41 52° SSE 19:30:50 10° E
VEP-3 4.3 18:31:18 34° SW 18:35:42 52° SSE 19:30:50 10° E
STARLINK-1061 3.8 18:36:20 66° ESE 18:36:20 66° ESE 18:40:12 10° NE
STARLINK-1067 3.6 18:41:08 77° ESE 18:41:08 77° ESE 18:45:12 10° NE
Meteor 1-4 Rocket 4.0 18:41:37 24° SE 18:43:16 38° E 18:46:48 10° NNE
Cosmos 2227 Rocket 3.0 18:44:04 33° WNW 18:44:04 33° WNW 18:49:07 10° N
STARLINK-1058 3.4 18:45:55 83° S 18:46:01 86° SE 18:50:11 10° NE
Nadezhda 4 Rocket 4.1 18:41:40 14° S 18:47:11 77° E 18:53:31 10° N
PAYLOAD A 4.4 18:44:31 10° NNE 18:49:53 65° E 18:54:15 15° S
USA 238 DEB 4.4 18:48:24 31° WNW 18:49:56 35° NW 18:56:06 10° NNE
USA 238 4.4 18:48:28 31° WNW 18:50:00 35° NW 18:56:14 10° NNE
deb Chang Zheng 4 3.8 18:46:38 10° N 18:50:39 51° WNW 18:50:39 51° WNW
STARLINK-1043 3.4 18:50:40 76° WSW 18:50:58 86° NW 18:55:07 10° NE
STARLINK-1065 3.4 18:51:41 74° WSW 18:52:02 84° NW 18:56:11 10° NE
Cosmos 2279 Rocket 4.0 18:46:36 10° NNW 18:52:44 60° W 18:57:32 17° SSW
Cosmos 2221 Rocket 3.5 18:53:07 58° WSW 18:53:41 65° W 18:58:06 10° N
CZ-2C R/B 4.4 18:50:47 10° NNW 18:52:58 24° NW 18:52:58 24° NW
CZ-2C R/B 2.8 18:50:37 10° NNE 18:55:06 56° E 18:59:15 12° S
Cosmos 389 Rocket 3.3 18:57:15 37° NNW 18:57:15 37° NNW 18:59:47 10° N
Meteor 1-13 Rocket 4.3 18:53:27 12° S 18:58:55 79° E 19:04:37 10° N
USA 234 3.9 18:54:05 10° ESE 19:00:25 56° NE 19:06:46 10° NW
STARLINK-1063 3.6 19:00:14 56° W 19:00:56 69° NW 19:05:03 10° NE
Cosmos 1689 Rocket 3.3 18:59:55 10° SSE 19:02:47 43° ENE 19:05:40 10° N
STARLINK-1064 3.7 19:05:02 48° W 19:05:55 62° NW 19:10:02 10° NE
Meteor 1-12 Rocket 4.4 19:01:05 10° N 19:07:04 81° E 19:12:54 10° S
SeaSat 1 3.8 19:02:51 10° SE 19:07:27 41° ENE 19:12:03 10° N
Sich 1 Rocket 3.9 19:03:57 10° NNW 19:08:04 40° W 19:08:29 39° WSW
Cosmos 494 Rocket 4.0 19:02:48 10° NNW 19:08:05 85° ENE 19:13:21 10° SSE
Cosmos 1544 3.9 19:04:58 10° NNW 19:07:31 34° NW 19:07:31 34° NW
BREEZE M DEB (TANK) 4.5 19:08:31 12° NNW 19:08:49 13° NNW 19:10:11 10° NNE
CZ-4B R/B 1.5 19:09:41 50° SW 19:10:07 54° W 19:13:34 10° NNW
Okean 2 Rocket 3.0 19:06:10 10° NNW 19:10:40 70° W 19:15:07 10° S
STARLINK-1041 3.8 19:09:49 41° W 19:10:55 56° NW 19:14:59 10° NE
Cosmos 1300 Rocket 3.4 19:07:14 10° N 19:11:34 85° W 19:15:52 10° S
Okean 3 3.9 19:11:14 37° W 19:11:34 38° W 19:15:28 10° N
Cosmos 2151 Rocket 3.6 19:07:10 10° N 19:11:34 78° E 19:15:57 10° S
Cosmos 1269 Rocket 4.4 19:10:05 10° NNW 19:15:23 68° ENE 19:20:39 10° SSE
STARLINK-1038 4.0 19:14:36 35° W 19:15:54 50° NW 19:19:56 10° NE
STARLINK-1046 4.1 19:19:23 31° W 19:20:53 45° NW 19:24:53 10° NE
SL-16 R/B 2.1 19:16:03 10° NNW 19:21:42 72° WSW 19:27:19 10° SSE
Cosmos 1378 Rocket 3.6 19:19:33 10° S 19:23:51 78° E 19:28:12 10° N
PSLV R/B 4.2 19:21:38 10° N 19:25:37 35° WNW 19:27:31 24° WSW
STARLINK-1039 4.3 19:24:08 27° W 19:25:51 41° NW 19:29:48 10° NNE
CENTAUR R/B 3.2 19:23:28 22° W 19:26:30 36° NW 19:32:39 10° NNE
Meteor 1-23 Rocket 4.4 19:22:48 10° S 19:28:27 77° E 19:34:13 10° NNE
ATLAS 5 CENTAUR R/B 1.9 19:23:17 14° SW 19:29:00 74° WNW 19:31:39 10° NNE
FALCON 9 DEB 3.7 19:28:21 29° W 19:29:12 34° SW 19:32:20 10° SSE
STARLINK-1045 4.4 19:28:55 24° W 19:30:50 37° NW 19:34:44 10° NNE
STARLINK-29 4.1 19:33:44 25° SW 19:33:45 25° SW 19:36:28 10° S
CZ-4B R/B 3.8 19:29:58 10° NNE 19:34:16 57° E 19:38:40 10° S
IDEFIX/ARIANE 42P 4.0 19:33:31 10° NNW 19:37:00 18° WNW 19:38:41 16° W
Timation 1 Rocket 4.4 19:31:23 10° SSW 19:37:23 89° WNW 19:43:26 10° NNE
Spot 2 4.5 19:40:18 10° N 19:45:26 70° WNW 19:50:29 10° SSW
Cosmos 1627 Rocket 4.4 19:39:45 10° S 19:45:53 75° W 19:52:01 10° N
Cosmos 2237 Rocket 3.9 19:43:32 10° WNW 19:44:53 12° W 19:44:53 12° W
Cosmos 2195 Rocket 4.5 19:41:03 10° SSW 19:47:07 66° W 19:53:18 10° N
Cosmos 1484 Rocket 2.7 19:47:55 10° N 19:51:44 88° WNW 19:55:28 10° SSW
Cosmos 1356 4.4 19:49:09 10° NW 19:52:04 26° W 19:54:59 10° SSW
Cosmos 2263 Rocket 2.2 19:51:17 10° SSW 19:56:54 69° WNW 20:02:34 10° NNE
ATLAS 5 CENTAUR R/B 3.1 19:55:42 10° NNW 20:01:41 64° ENE 20:08:27 10° SE
Okean 1 Rocket 3.0 19:58:45 10° NNW 20:03:04 62° W 20:07:24 10° S
Cosmos 1805 4.2 20:00:23 10° N 20:04:12 54° E 20:07:59 10° SSE
Cosmos 1975 Rocket 3.3 19:59:54 10° S 20:04:12 74° E 20:08:34 10° N
Shenzhou-11 Module 3.1 20:06:35 10° SSW 20:08:53 31° SE 20:11:13 10° E
COSMO-SKYMED 1 2.9 20:09:53 10° SSE 20:14:11 75° ENE 20:18:32 10° N
H-2A R/B 2.7 20:10:36 10° N 20:14:29 46° WNW 20:18:13 10° SSW
